[[{"header":{"parameterUnit":"m.s-1","parameterCategory":1,"la1":30.2991,"la2":30.254,"lo1":-89.0895,"lo2":-89.0444,"dy":0.0017,"dx":0.0017,"nx":28,"ny":28,"refTime":"2024-06-28T21:00:00:Z","depth":0,"parameterNumber":2,"parameterNumberName":"U-component_of_WINDS"},"data":[0,0,0,0,0,0,0,0,0,0,0,0,0,0,0,0,0,0,0,0,0,0,0,0,0,0,0,0,0,0,0,0,0,0,0,0,0,0,0,0,0,0,0,0,0,0,0,0,0,0,0,0,0,0,0,0,0,0,2.0554,2.0555,0,2.0608,2.0609,2.0609,2.0606,2.0605,2.0605,2.0604,2.0656,2.0658,2.066,0,0,0,0,0,0,0,0,0,0,0,0,0,2.0443,2.0446,2.0554,2.0555,2.0556,2.0608,2.0609,2.061,2.0606,2.0605,2.0605,2.0604,2.0656,2.0658,2.0661,0,0,0,0,0,0,0,0,0,0,0,0,0,2.0494,2.0446,2.0554,2.056,2.0561,2.0608,2.0609,2.061,2.0607,2.0605,2.0604,2.0603,2.0655,2.0658,2.0661,2.0704,0,0,2.0671,2.0672,0,0,0,0,0,0,0,0,2.0491,2.0498,2.0559,2.056,2.0561,2.0599,2.0589,2.0641,2.0607,2.0589,2.0604,2.0603,2.0638,2.0642,2.0655,2.0706,2.0708,2.0671,2.0673,2.0674,2.0675,0,0,0,0,0,0,0,2.0488,2.0496,2.0575,2.056,2.0561,2.0559,2.0565,2.0599,2.0619,2.0591,2.0591,2.0597,2.0638,2.0652,2.0656,2.0709,2.0671,2.0674,2.0676,2.0677,2.0794,2.0796,0,0,0,0,0,0,2.0483,2.0493,2.0574,2.0577,2.0523,2.0562,2.0568,2.0588,2.0619,2.0623,2.0598,2.0597,2.0647,2.0653,2.0658,2.0708,2.0674,2.0677,2.0679,2.0793,2.0795,2.0796,0,0,0,0,0,0,2.0481,2.049,2.0572,2.0535,2.0545,2.0565,2.0587,2.059,2.0604,2.0625,2.0628,2.0609,2.0646,2.0654,2.0692,2.071,2.0679,2.0681,2.0792,2.0794,2.0795,2.0809,0,0,0,0,0,0,2.0478,2.049,2.0508,2.0535,2.0547,2.0606,2.0589,2.0592,2.0609,2.0608,2.0635,2.0639,2.0646,2.0687,2.0695,2.0713,2.0684,2.079,2.0793,2.0795,2.0807,2.0811,2.0815,0,0,0,0,0,2.0474,2.0509,2.0508,2.0518,2.057,2.0607,2.0614,2.0622,2.0611,2.0628,2.0641,2.0638,2.0707,2.0691,2.07,2.072,2.0789,2.0792,2.0795,2.0805,2.081,2.0815,0,0,0,0,0,0,2.0483,2.0513,2.0513,2.0559,2.058,2.0606,2.0628,2.0628,2.0652,2.065,2.0659,2.0665,2.0703,2.0715,2.0697,2.0761,2.0746,2.0751,2.0751,2.0756,2.076,2.0755,2.0687,0,0,0,0,0,2.049,2.0519,2.0544,2.0582,2.0593,2.0609,2.0625,2.063,2.0652,2.0661,2.0677,2.0698,2.0724,2.0741,2.0767,2.0809,2.0813,2.0827,2.0831,2.0834,2.0837,2.0857,2.0863,2.0805,2.0805,2.0805,0,0,2.0506,2.0526,2.0543,2.0584,2.0601,2.0629,2.0616,2.0647,2.0667,2.0666,2.0702,2.0714,2.0738,2.0778,2.0796,2.0789,2.0854,2.0837,2.0839,2.0841,2.0861,2.0866,2.0871,2.0807,2.0807,2.0806,0,0,2.0547,2.0567,2.0599,2.0617,2.0643,2.0653,2.0661,2.0687,2.0695,2.0732,2.073,2.0754,2.0799,2.0815,2.0829,2.0874,2.0871,2.0882,2.0902,2.0921,2.0926,2.093,2.0944,2.0949,2.0886,2.0886,2.0886,0,2.0563,2.0606,2.0616,2.0646,2.0662,2.0663,2.0694,2.071,2.0743,2.0754,2.0746,2.0801,2.0817,2.0859,2.087,2.0882,2.0889,2.0879,2.0925,2.0929,2.0933,2.0946,2.0951,2.0887,2.0887,2.0887,2.0887,0,2.0622,2.0652,2.0675,2.0706,2.0726,2.0757,2.0769,2.0787,2.0789,2.0799,2.0835,2.0854,2.0882,2.0893,2.0896,2.0935,2.0929,2.0923,2.0908,2.0939,2.0951,2.0957,2.0889,2.0888,2.0888,2.0888,0,0,2.0672,2.0707,2.0715,2.0728,2.0757,2.0779,2.0808,2.0836,2.085,2.0872,2.0895,2.0933,2.0926,2.0942,2.0947,2.0965,2.0996,2.0956,2.0956,2.0961,2.1036,2.1039,2.1045,2.0994,2.0995,2.0996,2.1033,0,2.0715,2.0768,2.0776,2.0823,2.0848,2.0848,2.0873,2.0892,2.0901,2.0923,2.0934,2.0959,2.095,2.0959,2.0977,2.0988,2.1011,2.0986,2.1014,2.1015,2.1006,2.1052,2.1056,2.1091,2.1039,2.1039,2.104,0,2.0773,2.0796,2.0844,2.0866,2.0877,2.09,2.0925,2.0947,2.0967,2.0972,2.0989,2.0991,2.1019,2.1004,2.1041,2.1024,2.1036,2.1043,2.1044,2.1046,2.1028,2.1053,2.1102,2.1106,2.1048,2.1048,2.1047,0,2.08,2.0844,2.0878,2.089,2.0917,2.0932,2.0944,2.0964,2.0979,2.1,2.1009,2.1033,2.1046,2.1064,2.1071,2.1059,2.1107,2.1093,2.111,2.111,2.1119,2.1118,2.1169,2.113,2.113,2.113,2.113,0,2.0847,2.0876,2.0891,2.0911,2.0943,2.0951,2.0982,2.0993,2.101,2.1031,2.1032,2.1052,2.1061,2.1082,2.1088,2.1116,2.1122,2.1126,2.1127,2.1125,2.1124,2.1132,2.1129,2.1131,2.1131,2.1131,2.113,0,2.0883,2.0895,2.0931,2.0954,2.096,2.0982,2.1,2.1019,2.1028,2.1055,2.1061,2.1075,2.1099,2.1108,2.1138,2.1142,2.1174,2.1174,2.1167,2.1167,2.1183,2.118,2.1239,2.1246,2.1204,2.1204,2.1205,0,2.0911,2.0933,2.0957,2.0972,2.0984,2.1008,2.1023,2.1031,2.1047,2.107,2.1086,2.111,2.1129,2.1167,2.1179,2.12,2.12,2.1219,2.1203,2.1199,2.1197,2.1195,2.1196,2.1221,2.1221,2.1222,2.1222,0,2.0958,2.0962,2.0984,2.1008,2.1026,2.1045,2.1064,2.1075,2.1086,2.1103,2.1128,2.1143,2.1172,2.1195,2.1217,2.1227,2.1225,2.1227,2.1232,2.1229,2.1224,2.1224,2.1173,2.1225,2.1225,2.1225,2.1225,2.1224,2.0989,2.1008,2.1027,2.1051,2.1066,2.1083,2.1101,2.1112,2.1133,2.1157,2.1161,2.1186,2.1203,2.1233,2.1244,2.1263,2.1258,2.1265,2.1267,2.1268,2.1268,2.1222,2.1267,2.1267,2.1267,2.1267,2.1267,0,2.1034,2.1047,2.1069,2.1094,2.1112,2.111,2.113,2.1144,2.1167,2.1184,2.1203,2.1229,2.1251,2.1264,2.1285,2.1298,2.1297,2.1303,2.1301,2.1303,2.1273,2.1265,2.1303,2.1303,2.1303,2.1303,2.1303,2.1303,2.106,2.109,2.1096,2.1133,2.1145,2.117,2.1181,2.1196,2.1209,2.1239,2.1257,2.1265,2.1279,2.1301,2.132,2.1323,2.133,2.1336,2.1338,2.1309,2.1306,2.1302,2.1295,2.1338,2.1338,2.1367,2.1367,2.1367]},{"header":{"parameterUnit":"m.s-1","parameterCategory":1,"la1":30.2991,"la2":30.254,"lo1":-89.0895,"lo2":-89.0444,"dy":0.0017,"dx":0.0017,"nx":28,"ny":28,"refTime":"2024-06-28T21:00:00:Z","depth":0,"parameterNumber":3,"parameterNumberName":"V-component_of_WINDS"},"data":[0,0,0,0,0,0,0,0,0,0,0,0,0,0,0,0,0,0,0,0,0,0,0,0,0,0,0,0,0,0,0,0,0,0,0,0,0,0,0,0,0,0,0,0,0,0,0,0,0,0,0,0,0,0,0,0,0,0,5.8116,5.8119,0,5.831,5.8312,5.8314,5.8293,5.829,5.8287,5.8284,5.8474,5.8482,5.8489,0,0,0,0,0,0,0,0,0,0,0,0,0,5.7721,5.7728,5.8116,5.8119,5.8121,5.8309,5.8312,5.8314,5.8293,5.829,5.8286,5.8282,5.8471,5.8481,5.849,0,0,0,0,0,0,0,0,0,0,0,0,0,5.7901,5.7731,5.8116,5.8133,5.8137,5.8309,5.8312,5.8315,5.8294,5.829,5.8285,5.8281,5.8468,5.848,5.8491,5.8656,0,0,5.8528,5.8533,0,0,0,0,0,0,0,0,5.7891,5.7915,5.8128,5.8133,5.8137,5.8273,5.8242,5.8429,5.8295,5.8234,5.8284,5.8278,5.841,5.8426,5.8472,5.8665,5.8673,5.8529,5.8536,5.8541,5.8544,0,0,0,0,0,0,0,5.7878,5.7907,5.8192,5.8131,5.8137,5.8129,5.8149,5.8277,5.8345,5.8239,5.8238,5.8262,5.8411,5.8461,5.8477,5.8676,5.8528,5.8539,5.8546,5.8551,5.901,5.9015,0,0,0,0,0,0,5.7863,5.7897,5.8186,5.8198,5.8,5.814,5.8163,5.8233,5.8344,5.8356,5.8265,5.826,5.8443,5.8463,5.8483,5.8682,5.8541,5.8552,5.8559,5.9005,5.9011,5.9016,0,0,0,0,0,0,5.7854,5.7889,5.8179,5.8047,5.8084,5.8151,5.8231,5.824,5.8289,5.8364,5.8375,5.8304,5.844,5.8467,5.8613,5.8688,5.8557,5.8568,5.8999,5.9007,5.9014,5.9081,0,0,0,0,0,0,5.7843,5.7886,5.7951,5.8049,5.8091,5.8308,5.8236,5.8247,5.8311,5.8306,5.8403,5.8415,5.8439,5.8596,5.8625,5.8702,5.8577,5.8992,5.9002,5.9011,5.9072,5.909,5.9105,0,0,0,0,0,5.7829,5.7961,5.7955,5.799,5.8174,5.8312,5.8336,5.8363,5.8317,5.8382,5.8429,5.8412,5.8675,5.8611,5.8644,5.8725,5.8988,5.8999,5.901,5.9065,5.9086,5.9105,0,0,0,0,0,0,5.7868,5.7974,5.7968,5.8137,5.8216,5.8309,5.8391,5.8385,5.8477,5.8468,5.8496,5.8518,5.8665,5.871,5.8636,5.8889,5.8825,5.8843,5.8855,5.8876,5.8892,5.8878,5.8587,0,0,0,0,0,5.7897,5.8002,5.8088,5.8229,5.8269,5.8323,5.8384,5.8399,5.8481,5.8513,5.8572,5.865,5.875,5.8815,5.8912,5.9078,5.9098,5.9151,5.9167,5.918,5.9195,5.9285,5.9309,5.9054,5.9054,5.9054,0,0,5.7956,5.8027,5.8092,5.8238,5.8301,5.8408,5.8352,5.8467,5.8545,5.853,5.8673,5.8718,5.8806,5.8963,5.9035,5.9005,5.927,5.9194,5.9204,5.9213,5.9299,5.9323,5.9344,5.9062,5.906,5.9059,0,0,5.8119,5.8184,5.8308,5.8372,5.8469,5.8504,5.8533,5.8628,5.8658,5.8801,5.8792,5.8884,5.9056,5.912,5.9174,5.9359,5.9346,5.9389,5.9475,5.9562,5.9582,5.96,5.9664,5.9687,5.9405,5.9405,5.9405,0,5.818,5.8342,5.8371,5.8488,5.8551,5.8545,5.8668,5.8728,5.8851,5.8893,5.8858,5.9074,5.9133,5.9304,5.9349,5.9394,5.9426,5.9379,5.9577,5.9595,5.9612,5.9674,5.9698,5.941,5.9409,5.9409,5.9408,0,5.8412,5.8524,5.8612,5.8733,5.8806,5.8925,5.8969,5.9039,5.9046,5.9084,5.9229,5.93,5.941,5.9451,5.9459,5.9623,5.9601,5.9571,5.9507,5.9641,5.9699,5.9723,5.9416,5.9415,5.9413,5.9412,0,0,5.8605,5.874,5.8772,5.8826,5.8931,5.9018,5.9135,5.9245,5.9304,5.9388,5.9485,5.9631,5.9604,5.9666,5.968,5.9757,5.9897,5.9717,5.972,5.9747,6.0079,6.0101,6.0128,5.9888,5.9893,5.9897,6.0072,0,5.8778,5.8989,5.9018,5.9204,5.9307,5.9301,5.9403,5.9477,5.9515,5.9605,5.9646,5.9749,5.9706,5.9743,5.9819,5.9864,5.9963,5.9851,5.9977,5.9981,5.9955,6.0159,6.0182,6.0344,6.0095,6.0099,6.0102,0,5.9008,5.91,5.9297,5.9388,5.9432,5.9524,5.9626,5.9713,5.9796,5.9818,5.9887,5.9891,6.0009,5.9941,6.0103,6.0026,6.0078,6.0108,6.0115,6.0127,6.0049,6.0176,6.0397,6.0421,6.0138,6.0135,6.0133,0,5.9128,5.9301,5.9441,5.9488,5.9597,5.9661,5.9709,5.9788,5.9851,5.9939,5.998,6.008,6.0135,6.021,6.024,6.0187,6.04,6.0334,6.0419,6.0419,6.0464,6.0461,6.0696,6.0499,6.0499,6.0498,6.0498,0,5.9317,5.9438,5.9497,5.9583,5.9716,5.9746,5.9877,5.9922,5.9991,6.0084,6.0084,6.017,6.0204,6.0295,6.0318,6.0448,6.0472,6.0491,6.0496,6.0492,6.0489,6.0526,6.0515,6.0505,6.0503,6.0502,6.0501,0,5.9474,5.9519,5.9671,5.9762,5.9788,5.9882,5.9958,6.004,6.0077,6.0194,6.0222,6.0279,6.0386,6.0423,6.0552,6.0567,6.0718,6.0713,6.0691,6.0692,6.0775,6.0766,6.1041,6.1078,6.0858,6.086,6.0861,0,5.9592,5.9685,5.9786,5.9849,5.99,6.0002,6.0067,6.0099,6.0166,6.0267,6.0336,6.0442,6.0529,6.0699,6.075,6.0848,6.0845,6.0935,6.086,6.0851,6.0845,6.0839,6.0848,6.0948,6.0951,6.0953,6.0954,0,5.9796,5.9813,5.9909,6.0013,6.0091,6.0173,6.0253,6.0303,6.0346,6.0422,6.0532,6.06,6.0732,6.0837,6.0937,6.0982,6.0975,6.0977,6.1002,6.0998,6.0981,6.099,6.0728,6.0971,6.0969,6.0968,6.0967,6.0966,5.9937,6.0018,6.0102,6.0208,6.0272,6.0346,6.0427,6.0474,6.0568,6.0679,6.0691,6.081,6.0887,6.1021,6.1072,6.1162,6.1137,6.1173,6.1182,6.1191,6.1197,6.0967,6.1181,6.118,6.118,6.1179,6.1179,0,6.014,6.0194,6.0291,6.0403,6.0486,6.0474,6.056,6.0629,6.0735,6.0809,6.0895,6.102,6.1122,6.118,6.1281,6.1342,6.1341,6.1367,6.1363,6.1373,6.1214,6.1182,6.1367,6.1367,6.1367,6.1366,6.1366,6.1366,6.0255,6.0393,6.042,6.0587,6.0639,6.0757,6.0807,6.0874,6.0934,6.1075,6.116,6.1199,6.1266,6.1371,6.1463,6.1477,6.1513,6.1542,6.1554,6.1404,6.1385,6.1366,6.1336,6.155,6.155,6.1706,6.1707,6.1708]}]]